Regional Weather Roundup
Issued by NWS Portland, ME

Home | Current Version | Previous Version | Text Only | Print | Product List | Glossary On
Versions: 1 2 3 4 5 6 7 8 9 10 11 12 13 14 15 16 17 18 19 20 21 22 23 24 25 26 27 28 29 30 31 32 33 34 35 36 37 38 39 40 41 42 43 44 45 46 47 48 49 50
000
ASUS41 KGYX 010710
RWRGYX
WEATHER ROUNDUP FOR MAINE AND NEW HAMPSHIRE
NATIONAL WEATHER SERVICE GRAY ME
200 AM EST SUN FEB 01 2015

MEZ002-005-006-010-012-015-018-020-021-024-026-027-029-010800-
MAINE

CITY           SKY/WX    TMP DP  RH WIND       PRES   REMARKS
PORTLAND       CLEAR      5  -8  55 SW5       29.97R
SANFORD        CLEAR      9  -9  43 W9        29.95R
BAR HARBOR     CLEAR      3   1  92 NW9G18    29.84S
WISCASSET      CLEAR      9  -8  46 VRB6      29.95R
ROCKLAND       CLEAR      3  -6  66 CALM      29.88S
FRYEBURG       CLEAR    -12 -17  78 CALM      29.94R
LEWISTONAUBURN CLEAR      7  -9  47 NW8       29.92R
AUGUSTA        CLEAR      5 -11  47 W6        29.90R
WATERVILLE     CLEAR      7 -13  40 W7        29.86S
BANGOR         CLEAR      5  -7  57 NW10      29.86R WCI -10
GREENVILLE       N/A     -1  -9  68 NW21G29   29.74R WCI -24
MILLINOCKET    CLEAR      3  -9  57 NW18G35   29.80S WCI -17
HOULTON        PTCLDY     2  -7  66 NW13G23   29.73S WCI -15
PRESQUE ISLE   CLEAR      1  -8  66 W6        29.75S
FRENCHVILLE    PTCLDY     0 -12  57 NW16G28   29.69R WCI -20
CARIBOU        PTCLDY     2 -10  57 NW13G22   29.74R WCI -15
$$

NHZ002-005-008-009-011-012-014-010800-
NEW HAMPSHIRE

CITY           SKY/WX    TMP DP  RH WIND       PRES   REMARKS
PORTSMOUTH     CLEAR     10  -9  42 W14G22    29.98R WCI  -6
ROCHESTER      CLEAR      8 -10  43 VRB5      29.96R
NASHUA         CLEAR     12  -6  44 NW6       30.05R
MANCHESTER     CLEAR     10  -7  46 NW5       30.02R
CONCORD        CLEAR     10  -6  48 NW10      30.01S WCI  -4
LACONIA        CLEAR      9  -6  52 W8G18     29.96R
PLYMOUTH       FAIR       7  -2  67 W15G26    30.01R WCI -11
BERLIN         CLOUDY     1 -10  60 NW8       29.96S
WHITEFIELD     CLOUDY   -15 -20  78 CALM      30.02S
JAFFREY        CLEAR     10  -4  53 VRB6      29.98S
KEENE          PTCLDY     0  -8  71 S5        30.03F
LEBANON        PTCLDY    -7 -12  79 CALM      30.06S
MT WASHINGTON  ICE FOG  -11 -11 100 NW72G83     N/A  VSB 1/16WCI -52
$$

VTZ005-007-008-010800-
VERMONT

CITY           SKY/WX    TMP DP  RH WIND       PRES   REMARKS
ST JOHNSBURY     N/A    -13 -17  82 MISG      30.06F
MONTPELIER     LGT SNOW  -6 -11  79 E3        30.04F
BURLINGTON     CLOUDY     5  -4  66 S5        30.10F
$$

MAZ007-012-024-CTZ003-RIZ002-NYZ038-NYZ072-010800-
SOUTHERN NEW ENGLAND AND NY

CITY           SKY/WX    TMP DP  RH WIND       PRES   REMARKS
BOSTON         CLEAR     14  -6  40 W20G28    30.06R WCI  -3
WORCESTER      CLEAR    N/A N/A N/A W9        30.00R
NANTUCKET      CLEAR     20   2  45 NW25G32   30.03S WCI   2
PROVIDENCE     CLEAR     14  -2  49 W10       30.11R WCI   1
HARTFORD       PTCLDY    15   4  61 W8        30.12R
ALBANY         FLURRIES  15   6  67 NW6       30.14S
NEW YORK CITY  MOCLDY    22   7  52 W12       30.20S WCI  10
$$

ANZ081-ANZ082-ANZ150-NHZ014-MEZ023>029-010800-
COASTAL MARINE OBSERVATIONS

STATION/POSITION TIME  TEMP    WIND        PRES    WAVE
                       AIR SEA DIR/SP/G            HT/PER
                 (UTC) (F)     (DEG/KT/KT) (MB)    (FT/S)
MOUNT DESERT ROC 0700   14                 1009.0R
MATINICUS ROCK   0700          310/ 28/ 32 1012.0R
PORTLAND WX BUOY 0650   14 38  330/ 10/ 12 1014.9R   1/11
WELLS            0600   11 33  350/  3/  5 1014.0R
ISLE OF SHOALS   0700   13     290/ 29/ 33 1013.7F
JEFFREYS LEDGE   0621      44                N/A     7/ 6
CASHES LEDGE BUO 0650   21 44  310/ 27/ 33 1012.6R  10/ 7
$$

.............KEY..............
   WCI - WIND CHILL
   TC  - TEMPERATURE IN CELSIUS
   VSB - VISIBILITY IN MILES
   HX  - HEAT INDEX
   FAIR- INDICATES FEW OR NO CLOUDS BELOW 12,000 FT, WITH NO
         SIGNIFICANT WEATHER AND/OR OBSTRUCTIONS TO VISIBILITY.





USA.gov is the U.S. government's official web portal to all federal, state and local government web resources and services.